ituDewa

Jackpot

Texas Poker Multi Jackpot System

Kini Telah hadir Jackpot SUPER ROYAL FLUSH

Kini Telah hadir Jackpot 2000 (khusus table VIP keatas).

Ikutilah global jackpot yang tersedia di system kami, dengan system jackpot terbaru dan pertama di indonesia, anda dapat membeli jackpot dengan harga 100 rupiah saja dan menangkan hadiahnya hingga puluhan juta rupiah.

Jackpot bukanlah suatu keharusan untuk dibeli, namun kami memberikan suatu fitur tambahan untuk member tercinta dari www.qdewi.org.

Terdapat tiga pilihan harga jackpot yang bisa anda beli yaitu :100,500,1000 dan 2000(khusus table VIP Keatas) rupiah.

Hadiah dari Multi jackpot system www.qdewi.org

  1. full house x 10 harga jackpot yang anda beli.
      (contoh:anda membeli 1000 maka:1000 X10 = 10.000)
  2. four of kind x 250 harga jackpot yang anda beli
      (contoh:anda membeli 1000 maka:1000 X250 = 250.000)
  3. Straight flush x 1200
      (contoh:anda membeli 1000 maka:1000 X1200 = 1.200.000)
  4. Royal flush x 10000 harga jackpot yang anda beli
      (contoh:anda membeli 1000 maka:1000 X10000 = 10.000.000)
  5. SUPER ROYAL FLUSH x 30000 harga jackpot yang anda beli
      (contoh:anda membeli 1000 maka:1000 X30000 = 30.000.000)

Kondisi kartu

  1. full house adalah kondisi kartu dimana kartu anda dan kartu tengah dengan total 7 kartu bisa mendapatkan nilai 5 kartu dengan kombinasi 1 tris(three of kind) dan 1 pair, contoh 3 kartu 10 dan 2 kartu 5
  2. Four of kind adalah kondisi kartu dimana kartu anda dan kartu tengah dengan total 7 kartu bisa mendapatkan nilai 5 kartu dengan kombinasi 4 kartu yang sama jumlah dan 1 kartu apapun juga contoh anda mendapatkan 4 buah kartu angka 3 dan 1 kartu apapun.
  3. Staright flush adalah kondisi kartu dimana kartu anda dan kartu tengah dengan total 7 kartu bisa mendapatkan nilai 5 kartu dengan kombinasi seri / staright dengan kembang yang sama contoh : urutan kartu dari angka 5, 6, 7, 8 , 9 10 dengan kembang yg sama misalnya as hati
  4. Royal flush adalah kondisi kartu dimana kartu anda dan kartu tengah dengan total 7 kartu bisa mendapatkan nilai 5 kartu dengan kombinasi seri / staright dengan kembang yang sama tetapi kartu tersebut haruslah dimulai dari 10. contoh 10, Queen, Jack, King dan aces dengan kembang yang sama
  5. Super Royal flush adalah kondisi kartu dimana Kedua kartu anda digabung dengan 3 kartu pertama meja haruslah royal flush. contoh kartu anda 10,Queen kembang sama dan 3 kartu pertama meja adalah Jack, King dan aces dengan kembang yang sama

Demikian adalah penjelasan dari Multi Jackpot www.qdewi.org terima kasih dan selamat bermain salam hoki dari kami

Texas Poker Jackpot Winner

TOP SUPER ROYAL FLUSH
No.TanggalNamaPriceWin
122/06 19:10Z2108Super Royal flush60,000,000
222/06 15:06M7H56LRCZZSuper Royal flush15,000,000
322/06 14:06ANDRAMANIHSuper Royal flush15,000,000
422/06 12:27JP_KERPOSuper Royal flush30,000,000
522/06 11:22ARBONG88Super Royal flush30,000,000
TOP ROYAL FLUSH
No.TanggalNamaPriceWin
122/06 21:55DIRUJAKRoyal flush10,000,000
222/06 21:37E18271C8Royal flush2,000,000
322/06 21:34WAK_DOK_LARoyal flush20,000,000
422/06 21:22WRGPCH1OTWRoyal flush10,000,000
522/06 21:11YARIS2472Royal flush5,000,000
TOP STRAIGHT FLUSH
No.TanggalNamaPriceWin
122/06 22:02AIUGAME9Straight Flush240,000
222/06 22:01SWANTE17Straight Flush1,200,000
322/06 22:01TEMPOER999Straight Flush240,000
422/06 22:01MRTRAMStraight Flush240,000
522/06 22:01JE666Straight Flush120,000
LATEST JACKPOT
No.TanggalNamaPriceWin
122/06 22:05CETWUHFNSZFull House2,000
222/06 22:05WO83Full House5,000
322/06 22:05DANIFC08Full House2,000
422/06 22:05BARAGAZUFull House5,000
522/06 22:05DARKNESSS9Full House2,000
622/06 22:05SILAKO11Full House5,000
722/06 22:05RYAN263Full House2,000
822/06 22:05F9BAD59CFull House5,000
922/06 22:05B7E7880DFull House5,000
1022/06 22:05MUMUH1986Full House5,000
1122/06 22:05SARI0277Full House1,000
1222/06 22:05HERMANSYAH89Full House10,000
1322/06 22:05DABSAUCIFull House2,000
1422/06 22:05AXISS990Full House1,000
1522/06 22:05KATAK_99Four Of A Kind125,000
1622/06 22:058REKELLEFull House2,000
1722/06 22:05JHON_454Full House2,000
1822/06 22:05MENCI666Full House2,000
1922/06 22:05GUNTUR88XFull House5,000
2022/06 22:05CIEBOB11Full House5,000
2122/06 22:05VAMPIR321Full House1,000
2222/06 22:05AQLAH07Four Of A Kind125,000
2322/06 22:05JNT_NGEBUTFour Of A Kind125,000
2422/06 22:05BAYZZ17Four Of A Kind250,000
2522/06 22:05MAEL899Four Of A Kind250,000
2622/06 22:05AKD1QRQN4ZFull House2,000
2722/06 22:05AGIL705Full House2,000
2822/06 22:05B61KA585Full House1,000
2922/06 22:05FOJVZZ4XWTFull House2,000
3022/06 22:05IZZAMKUFull House2,000
3122/06 22:05ARJUN4212Full House5,000
3222/06 22:05BETURI88Full House5,000
3322/06 22:05DRENJESFull House2,000
3422/06 22:05AJIOFull House2,000
3522/06 22:05LUCK1B0YFull House2,000
3622/06 22:05MANGVIKAFull House5,000
3722/06 22:05MONEEE30Full House5,000
3822/06 22:05JENDRAL_6Full House1,000
3922/06 22:04RMZEQ3STJ1Full House10,000
4022/06 22:04CARHOK78Full House5,000
4122/06 22:04WAANDIFull House2,000
4222/06 22:04AGN3Full House2,000
4322/06 22:04EVAKEMBARFull House2,000
4422/06 22:04ROYALJOZZFull House20,000
4522/06 22:04NUBIBRITSFull House10,000
4622/06 22:04B4NG3N4N99Full House2,000
4722/06 22:04DWBTSOVA34Full House2,000
4822/06 22:04KINGG212Full House1,000
4922/06 22:04KLUKKLUK46Full House1,000
5022/06 22:04IONGSZ6LE2Full House2,000

Domino Multi Jackpot System

Ikutilah global jackpot yang tersedia di system kami, dengan system jackpot terbaru dan pertama di indonesia, anda dapat membeli jackpot dengan harga 100 rupiah saja dan menangkan hadiahnya hingga puluhan juta rupiah.

Jackpot bukanlah suatu keharusan untuk dibeli, namun kami memberikan suatu fitur tambahan untuk member tercinta dari www.qdewi.org.

Terdapat tiga pilihan harga jackpot yang bisa anda beli yaitu :100,500 dan 1000 rupiah.

Hadiah dari Multi jackpot system www.qdewi.org

  1. Murni Kecil x 50 harga jackpot yang anda beli.
      (contoh:anda membeli 1000 maka:1000 X 50 = 50.000)
  2. Murni Besar x 50 harga jackpot yang anda beli
      (contoh:anda membeli 1000 maka:1000 X 50 = 50.000)
  3. BALAK x 100 harga jackpot yang anda beli
      (contoh:anda membeli 1000 maka:1000 X 100 = 100.000)
  4. ENAM DEWA x 6666 harga jackpot yang anda beli
      (contoh:anda membeli 1000 maka:1000 X 6666 = 6.666.000)

Demikian adalah penjelasan dari Multi Jackpot www.qdewi.org terima kasih dan selamat bermain salam hoki dari kami

Domino Jackpot Winner

TOP ENAM DEWA
No.TanggalNamaPriceWin
122/06 20:13KATAK_88murni enam3,333,000
222/06 19:06AZKHA883murni enam6,666,000
322/06 18:49C8D56233murni enam6,666,000
422/06 17:36OMJIN01murni enam3,333,000
522/06 17:28AMAL886murni enam3,333,000
TOP BALAK
No.TanggalNamaPriceWin
122/06 22:05ANDDY69balak100,000
222/06 22:04SJPOKER035balak10,000
322/06 22:04IESTAbalak100,000
422/06 22:02DA453A88balak10,000
522/06 22:01BFIbalak100,000
LATEST JACKPOT
No.TanggalNamaPriceWin
122/06 22:05ANDDY69balak100,000
222/06 22:04SJPOKER035balak10,000
322/06 22:04TANTEKITOmurni besar25,000
422/06 22:04IESTAbalak100,000
522/06 22:03NAR77murni besar25,000
622/06 22:03JANG98murni kecil50,000
722/06 22:03LARA01020murni besar5,000
822/06 22:02GJAHEDOmurni besar25,000
922/06 22:02MINKU999murni kecil50,000
1022/06 22:02LORRI65lucky9925,000
1122/06 22:02ZURISMAN_murni kecil50,000
1222/06 22:02EWEHELEHNAmurni besar50,000
1322/06 22:02DA453A88balak10,000
1422/06 22:01CB77ORIENmurni besar50,000
1522/06 22:01BFIbalak100,000
1622/06 22:01LARA01020murni besar5,000
1722/06 22:00VIKRAM66murni besar25,000
1822/06 22:00SAKOY82murni besar50,000
1922/06 22:00NIMEN456murni kecil25,000
2022/06 22:00UASSUKABEHbalak100,000
2122/06 21:59SJPOKER035murni besar5,000
2222/06 21:59LATUKAUmurni besar25,000
2322/06 21:59YUDIN00murni kecil5,000
2422/06 21:59TROLOK83murni kecil50,000
2522/06 21:58LARA01020murni kecil5,000
2622/06 21:58WITHDRAWNPbalak10,000
2722/06 21:58FAIEVMNGKEbalak50,000
2822/06 21:58GJAHEDOmurni besar25,000
2922/06 21:57FERY28murni besar50,000
3022/06 21:57ARIELDJmurni besar50,000
3122/06 21:57BOETONXmurni kecil5,000
3222/06 21:57GEOGLE99balak50,000
3322/06 21:57OMRE89balak10,000
3422/06 21:56PUTRAKAWASmurni kecil25,000
3522/06 21:56EYANGLUCKYmurni kecil25,000
3622/06 21:55KIBEDJO21murni besar50,000
3722/06 21:55RICO010murni kecil25,000
3822/06 21:54AFL47UNbalak100,000
3922/06 21:54SELVIANA30lucky9925,000
4022/06 21:53BHEST97murni kecil50,000
4122/06 21:53MINAHASA23murni besar25,000
4222/06 21:53S44BAR_69murni besar50,000
4322/06 21:53MULYA2010murni besar5,000
4422/06 21:50BIRUTUA87murni besar5,000
4522/06 21:50DENISRmurni kecil50,000
4622/06 21:50KALSEMmurni besar50,000
4722/06 21:50BRIO_90murni besar25,000
4822/06 21:49TAKIM85murni kecil50,000
4922/06 21:49JENDRAL011murni kecil25,000
5022/06 21:49ARIVANHELLmurni kecil50,000

Ceme Multi Jackpot System

Jackpot dilihat dari gabungan kartu pemain dengan kartu bandar. Bandar harus membeli jackpot sebanyak jumlah player yang sedang duduk. Sebagai contoh bila terdapat 3 pemain duduk bermain, dan bandar memutuskan untuk membeli jackpot Rp 1.000, maka pada periode tersebut bandar akan membeli jackpot sebanyak 3xRp1.000 = Rp3.000.

Jackpot bukanlah suatu keharusan untuk dibeli, namun kami memberikan suatu fitur tambahan untuk member tercinta dari www.qdewi.org.

Terdapat tiga pilihan harga jackpot yang bisa anda beli yaitu :100,500 dan 1000 rupiah.

Hadiah dari Multi jackpot system www.qdewi.org

  1. Murni Kecil x 50 harga jackpot yang anda beli.
      (contoh:anda membeli 1000 maka:1000 X 50 = 50.000)
  2. Murni Besar x 50 harga jackpot yang anda beli
      (contoh:anda membeli 1000 maka:1000 X 50 = 50.000)
  3. BALAK x 200 harga jackpot yang anda beli
      (contoh:anda membeli 1000 maka:1000 X 200 = 200.000)
  4. ENAM DEWA x 6666 harga jackpot yang anda beli
      (contoh:anda membeli 1000 maka:1000 X 6666 = 6.666.000)

Demikian adalah penjelasan dari Multi Jackpot www.qdewi.org terima kasih dan selamat bermain salam hoki dari kami

Ceme Jackpot Winner

TOP ENAM DEWA
No.TanggalNamaPriceWin
122/06 22:04H135murni enam6,666,000
222/06 21:57WANGI83murni enam3,333,000
322/06 21:38A68ANG8206991murni enam6,666,000
422/06 21:38CHERY02murni enam3,333,000
522/06 21:32B40SSIKA1680murni enam666,600
TOP BALAK
No.TanggalNamaPriceWin
122/06 22:05FATTAH777balak100,000
222/06 22:05MALIL88balak200,000
322/06 22:05DEKHOEXbalak200,000
422/06 22:05KIRAY03balak200,000
522/06 22:04ANGGREK_8balak200,000
LATEST JACKPOT
No.TanggalNamaPriceWin
122/06 22:05FATTAH777balak100,000
222/06 22:05MALIL88balak200,000
322/06 22:05DEKHOEXbalak200,000
422/06 22:05KIRAY03balak200,000
522/06 22:05DEKHOEXmurni kecil50,000
622/06 22:05B66081F3murni kecil25,000
722/06 22:05ARIEFVC99murni kecil50,000
822/06 22:05WANDAY10murni kecil25,000
922/06 22:05TIGAWANITAmurni kecil50,000
1022/06 22:04ANGGREK_8balak200,000
1122/06 22:04DWBTTRA181murni kecil50,000
1222/06 22:04VDYALmurni kecil5,000
1322/06 22:04S3ROJA19murni kecil5,000
1422/06 22:04RISBOWbalak100,000
1522/06 22:04POKOKE_WDmurni kecil50,000
1622/06 22:04MANK9999murni kecil5,000
1722/06 22:04GIOSUGI86balak100,000
1822/06 22:04H135murni enam6,666,000
1922/06 22:04ANAA2303murni kecil5,000
2022/06 22:04PERU2balak200,000
2122/06 22:04HANDICRUT1murni kecil50,000
2222/06 22:04KUNYUK2345murni kecil50,000
2322/06 22:04BEWOKTEAmurni kecil50,000
2422/06 22:03WONKTEGALmurni besar50,000
2522/06 22:03SUTOTOmurni besar50,000
2622/06 22:03VF5RACYUNRmurni besar50,000
2722/06 22:03BJXBRAVO77murni kecil50,000
2822/06 22:03FORTUNA_12murni kecil25,000
2922/06 22:03D3W4T423balak200,000
3022/06 22:03RAKA_JESmurni kecil5,000
3122/06 22:03MAOENK83murni kecil25,000
3222/06 22:03XENIA5555balak200,000
3322/06 22:03ALVAROTJmurni besar50,000
3422/06 22:03INGINDAPATmurni kecil25,000
3522/06 22:03BOKE19murni kecil50,000
3622/06 22:03SANUSI86murni kecil50,000
3722/06 22:03QQRUDFIR99murni kecil5,000
3822/06 22:03GUSTH3Ymurni besar50,000
3922/06 22:03PREHSIAT87murni kecil5,000
4022/06 22:03KAPANWD02murni kecil5,000
4122/06 22:03FIRDALISAmurni kecil25,000
4222/06 22:03R9ZILONGmurni kecil25,000
4322/06 22:03ANDYRAFI24murni besar50,000
4422/06 22:03MOTOR991murni besar50,000
4522/06 22:03B3409ECGmurni besar5,000
4622/06 22:03GUDANGG9murni besar50,000
4722/06 22:03GUDANGG9balak200,000
4822/06 22:03SUMPIAbalak20,000
4922/06 22:03DWBTTRA181murni kecil50,000
5022/06 22:02JAJANAN333murni kecil50,000